Regional Weather Roundup
Issued by NWS

Home | Current Version | Previous Version | Text Only | Print | Product List | Glossary Off
Versions: 1 2 3 4 5 6 7 8 9 10 11 12 13 14 15 16 17 18 19 20 21 22 23 24 25 26 27 28 29 30 31 32 33 34 35 36 37 38 39 40 41 42 43 44 45 46 47 48 49 50

000
ASUS45 KCYS 262310
RWRWY

WYOMING REGIONAL WEATHER ROUNDUP
NATIONAL WEATHER SERVICE CHEYENNE WY
500 PM MDT TUE MAY 26 2015

NOTE:  "FAIR" INDICATES FEW OR NO CLOUDS BELOW 12,000 FEET
WITH NO SIGNIFICANT WEATHER AND/OR OBSTRUCTIONS TO VISIBILITY.

WYZ001-270000-
YELLOWSTONE NATIONAL PARK

CITY           SKY/WX    TMP DP  RH WIND       PRES   REMARKS
LK YELLOWSTONE   N/A     44  36  73 VRB3      30.14R
W YELLOWSTONE  NOT AVBL

$$
WYZ002>013-054>058-071-098>099-270000-
NORTHERN WYOMING

CITY           SKY/WX    TMP DP  RH WIND       PRES   REMARKS
JACKSON        PTSUNNY   48  45  87 S8        30.09S
CODY           CLOUDY    57  48  72 NE13      29.97F
GREYBULL       FAIR      72  41  32 S10       29.88R
WORLAND        FAIR      68  48  48 SW10      29.90F
SHERIDAN       FAIR      66  46  48 S5        29.93F
BUFFALO        FAIR      65  46  50 S13       29.98F
GILLETTE       PTSUNNY   65  46  50 SE7       29.92S THUNDER
HULETT         MOCLDY    63  50  63 E10       29.96S
NEWCASTLE      FAIR      64  45  48 S8        29.96S

$$
WYZ014>020-022>026-101>103-270000-
CENTRAL WYOMING

CITY           SKY/WX    TMP DP  RH WIND       PRES   REMARKS
BIG PINEY      PTSUNNY   54  44  69 N8        30.07F
PINEDALE       CLOUDY    50  43  76 NE7       30.09S
DUBOIS         FAIR      52  37  58 NW18      30.05R
LANDER         LGT RAIN  58  43  57 SW22G30   29.97
RIVERTON       FAIR      66  45  46 NE9       29.96F
CASPER         FAIR      69  44  40 NW8       29.96S
DOUGLAS        FAIR      67  43  41 SE3       29.97S

$$
WYZ021-027>030-104>119-270000-
SOUTHERN WYOMING

CITY           SKY/WX    TMP DP  RH WIND       PRES   REMARKS
EVANSTON       LGT RAIN  48  45  89 W14       30.09R FOG
KEMMERER       FAIR      54  41  62 W14       30.08F
FORT BRIDGER   MOCLDY    59  45  58 W12       30.11S
ROCK SPRINGS   CLOUDY    55  43  63 SW29G35   30.06R THUNDER
DIXON          MOCLDY    59  42  52 S14G20    30.09S
RAWLINS        PTSUNNY   60  40  47 SW13      30.04F
SARATOGA       MOCLDY    59  37  44 MISG      30.07S
LARAMIE        FAIR      57  36  45 SE6       30.07R
CHEYENNE       LGT RAIN  63  43  48 CALM      30.05R
TORRINGTON     FAIR      69  50  50 SE13      29.95F
PINE BLUFFS    FAIR      64  43  45 S8        30.03R

$$



USA.gov is the U.S. government's official web portal to all federal, state and local government web resources and services.